Asyut, Egypt

11:46 PM EET on December 16, 2017 (GMT +0200)
Asyut

Weather History for HEAT - March, 2013

Change the Weather History Date:

Saturday, March 30, 2013

  Actual Average Record
Temperature  
Mean Temperature 76 °F -  
Max Temperature 95 °F 89 °F - ()
Min Temperature 57 °F 58 °F - ()
Cooling Degree Days 11    
Growing Degree Days 26 (Base 50)    
Moisture  
Dew Point 41 °F    
Average Humidity 30    
Maximum Humidity 52    
Minimum Humidity 5    
Precipitation  
Precipitation 0.00 in 0.00 in - ()
Sea Level Pressure  
Sea Level Pressure 29.86 in    
Wind  
Wind Speed 5 mph ()    
Max Wind Speed 14 mph    
Max Gust Speed -    
Visibility 6.0 miles    
Events      
T = Trace of Precipitation, MM = Missing Value Source: Averaged Metar Reports

Daily Weather History Graph

Daily Weather History Graph

Search for Another Location

Airport or City:

Trip Planner

Search our weather history database for the weather conditions in past years. The results will help you decide how hot, cold, wet, or windy it might be!

Date:

Astronomy

Mar. 30, 2013 Rise Set
Actual Time 5:48 AM EET 6:12 PM EET
Civil Twilight 5:25 AM EET 6:35 PM EET
Nautical Twilight 4:58 AM EET 7:02 PM EET
Astronomical Twilight 4:30 AM EET 7:30 PM EET
Moon 9:35 PM EET (3/30) 7:46 AM EET (3/30)
Length of Visible Light 13h 10m
Length of Day
12h 23m
Waning Gibbous, 88% of the Moon is Illuminated
Mar 30
Waning Gibbous
Apr 3
Last Quarter
Apr 10
New
Apr 18
First Quarter
Apr 25
Full

Hourly Weather History & Observations

Time (EET) Temp. Dew Point Humidity Pressure Visibility Wind Dir Wind Speed Gust Speed Precip Events Conditions
12:00 AM 68.0 °F 41.0 °F 37% 29.92 in - NNW 10.4 mph - N/A   Clear
1:00 AM 66.2 °F 41.0 °F 40% 29.89 in - North 10.4 mph - N/A   Clear
2:00 AM 65 °F 42 °F 31% 29.89 in 6 mi North 2.3 mph - -  
2:00 AM 64.4 °F 42.8 °F 45% 29.89 in - North 2.3 mph - N/A   Clear
3:00 AM 62.6 °F 42.8 °F 48% 29.86 in - NNW 5.8 mph - N/A   Clear
4:00 AM 60.8 °F 42.8 °F 52% 29.86 in - NNW 5.8 mph - N/A   Clear
5:00 AM 59.0 °F 41.0 °F 51% 29.89 in - NW 3.5 mph - N/A   Clear
6:00 AM 59.0 °F 41.0 °F 51% 29.89 in - NNW 4.6 mph - N/A   Clear
7:00 AM 59.0 °F 41.0 °F 51% 29.89 in - NE 1.2 mph - N/A   Clear
8:00 AM 66 °F 42 °F 30% 29.89 in 6 mi NNE 2.3 mph - -  
8:00 AM 66.2 °F 42.8 °F 43% 29.89 in - NNE 2.3 mph - N/A   Clear
9:00 AM 73.4 °F 41.0 °F 31% 29.89 in - NNE 3.5 mph - N/A   Clear
10:00 AM 82.4 °F 41.0 °F 23% 29.89 in - ENE 4.6 mph - N/A   Clear
11:00 AM 87.8 °F 41.0 °F 19% 29.89 in - SE 5.8 mph - N/A   Clear
12:00 PM 89.6 °F 42.8 °F 20% 29.89 in - SE 13.8 mph - N/A   Clear
1:00 PM 93.2 °F 39.2 °F 15% 29.86 in - SW 4.6 mph - N/A   Clear
2:00 PM 95 °F 33 °F 5% 29.79 in 6 mi WSW 5.8 mph - -  
2:00 PM 95.0 °F 33.8 °F 12% 29.83 in - WSW 5.8 mph - N/A   Clear
3:00 PM 95.0 °F 35.6 °F 12% 29.83 in - SSW 6.9 mph - N/A   Clear
4:00 PM 91.4 °F 42.8 °F 18% 29.80 in - NNW 5.8 mph - N/A   Clear
5:00 PM 89.6 °F 41.0 °F 18% 29.77 in - NE 8.1 mph - N/A   Clear
6:00 PM 87.8 °F 41.0 °F 19% 29.80 in - ENE 6.9 mph - N/A   Clear
8:00 PM 79 °F 46 °F 21% 29.79 in 6 mi NNE 2.3 mph - -  
9:00 PM 77.0 °F 46.4 °F 34% 29.86 in - Calm Calm - N/A   Clear
10:00 PM 73.4 °F 37.4 °F 27% 29.86 in - ESE 2.3 mph - N/A   Clear
11:00 PM 73.4 °F 39.2 °F 29% 29.83 in - SE 5.8 mph - N/A   Clear